Flag for China Weather past 2 weeks in Shanghai, Shanghai Municipality, China

57 °F


Feels Like: 55 °F
Forecast: 53 / 62 °F
Wind: 10 mph from East

Location: Shanghai Hongqiao Airport

Current Time: Nov 30, 2015 at 8:31:41 PM

Latest Report: Nov 30, 2015 at 8:00 PM

Visibility: 2 mi

Pressure: 30.24 "Hg

Humidity: 72%

Dew point: 48 °F

Location of ShanghaiLocation

Historic Weather in Shanghai — Graph


Shanghai temperature yesterday

Maximum temperature yesterday: 54 °F (at 4:00 PM)
Minimum temperature yesterday: 46 °F (at 10:00 PM)
Average temperature yesterday: 50 °F

Past Weeks' High & Low Weather Summary

High68 °F (Nov 16, 9:00 AM)100% (Nov 17, 8:00 PM)30.48 "Hg (Nov 17, 8:00 PM)
Low28 °F (Nov 27, 3:30 AM)29% (Nov 27, 4:00 PM)29.92 "Hg (Nov 16, 3:00 AM)
Average55 °F81%30.22 "Hg
* Reported Nov 15 7:00 PM — Nov 30 7:30 PM, Shanghai, Weather by CustomWeather, © 2015

Note: Actual official high and low records may vary slightly from our data, if they occured in-between our weather recording intervals... More about our weather records


Shanghai weather history for previous 24 hours

Time TempWeatherWind HumidityBarometerVisibility
7:30 PM
Mon, Nov 30
57 °FFog.8 mph72%30.21 "Hg2 mi
7:00 PM57 °FFog.8 mph72%30.21 "Hg2 mi
6:30 PM57 °FFog.6 mph77%30.21 "Hg2 mi
6:00 PM59 °FPassing clouds.6 mph68%30.21 "Hg2 mi
5:30 PM59 °FPassing clouds.6 mph63%30.21 "Hg2 mi
5:00 PM59 °FPassing clouds.6 mph63%30.21 "Hg2 mi
4:30 PM59 °FHaze.6 mph63%30.21 "Hg2 mi
4:00 PM61 °FHaze.3 mph59%30.21 "Hg2 mi
3:00 PM61 °FHaze.6 mph63%30.21 "Hg2 mi
2:30 PM63 °FScattered clouds.3 mph64%30.21 "Hg2 mi
2:00 PM63 °FHaze.1 mph59%30.21 "Hg2 mi
1:30 PM61 °FHaze.1 mph68%30.21 "Hg2 mi
1:00 PM61 °FHaze.1 mph68%30.24 "Hg2 mi
12:30 PM59 °FHaze.1 mph72%30.24 "Hg2 mi
11:30 AM57 °FFog.1 mph82%30.27 "Hg2 mi
11:00 AM57 °FFog.1 mph82%30.27 "Hg2 mi
10:30 AM55 °FFog.1 mph82%30.30 "Hg1 mi
10:00 AM54 °FFog.3 mph94%30.30 "Hg1 mi
9:30 AM52 °FFog.3 mph94%30.30 "Hg1 mi
8:30 AM48 °FFog.3 mph100%30.30 "Hg1 mi
8:00 AM48 °FFog.3 mph94%30.30 "Hg1 mi
7:30 AM46 °FFog.1 mph100%30.27 "Hg0 mi
7:00 AM45 °FFog.1 mph100%30.27 "Hg0 mi
6:30 AM45 °FFog.3 mph100%30.27 "Hg0 mi
6:00 AM45 °FFog.3 mph100%30.27 "Hg0 mi
5:30 AM45 °FFog.No wind100%30.27 "Hg0 mi
5:00 AM45 °FFog.No wind100%30.27 "Hg0 mi
4:30 AM45 °FFog.No wind100%30.27 "Hg0 mi
4:00 AM45 °FFog.No wind100%30.27 "Hg0 mi
3:30 AM46 °FFog.1 mph93%30.27 "Hg0 mi
3:00 AM46 °FFog.1 mph100%30.27 "Hg0 mi
2:30 AM46 °FFog.No wind100%30.27 "Hg0 mi
2:00 AM46 °FFog.No wind100%30.27 "Hg0 mi
1:30 AM46 °FFog.1 mph93%30.27 "Hg0 mi
1:00 AM46 °FFog.1 mph93%30.27 "Hg0 mi
12:30 AM46 °FFog.1 mph100%30.27 "Hg0 mi
12:00 AM46 °FFog.1 mph100%30.30 "Hg1 mi
11:30 PM
Sun, Nov 29
46 °FFog.No wind93%30.30 "Hg1 mi
11:00 PM46 °FFog.No wind100%30.30 "Hg1 mi
10:30 PM46 °FFog.No wind100%30.30 "Hg1 mi
10:00 PM46 °FFog.1 mph100%30.30 "Hg1 mi
9:30 PM48 °FFog.No wind100%30.30 "Hg2 mi
9:00 PM48 °FFog.1 mph94%30.30 "Hg2 mi
8:30 PM50 °FFog.1 mph94%30.30 "Hg2 mi
8:00 PM50 °FFog.1 mph94%30.27 "Hg2 mi
Weather by CustomWeather, © 2015

See weather overviewHow to use our weather pages